• Em Portugal
  • Lista de países
  • Para 7 dias
  • Temperatura da água
  • Mapas de satélite
  • Mapa do tempo
  • Widgets de tempo
  • user-avatar
    Iniciar Sessão

    Previsão horária em Barisal

    Hoje, 25 Setembro, Segunda-feira

    Tempo Temperatura Precipitação Vento Pressão Humidade
    00:00 +30°C° 0 mm 3 m/s 753 mmHg 83%
    01:00 +30°C° 0 mm 3 m/s 753 mmHg 84%
    02:00 +30°C° 0 mm 2 m/s 753 mmHg 85%
    03:00 +30°C° 0 mm 2 m/s 752 mmHg 86%
    04:00 +30°C° 0,1 mm 2 m/s 753 mmHg 86%
    05:00 +29°C° 0,1 mm 2 m/s 753 mmHg 86%
    06:00 +29°C° 0,1 mm 1 m/s 753 mmHg 86%
    07:00 +30°C° 0 mm 1 m/s 753 mmHg 80%
    08:00 +32°C° 0 mm 1 m/s 754 mmHg 75%
    09:00 +33°C° 0 mm 1 m/s 754 mmHg 70%
    10:00 +34°C° 0 mm 1 m/s 754 mmHg 64%
    11:00 +36°C° 0 mm 1 m/s 753 mmHg 57%
    12:00 +35°C° 0 mm 0 m/s 753 mmHg 51%
    13:00 +37°C° 0 mm 1 m/s 752 mmHg 49%
    14:00 +39°C° 0 mm 1 m/s 751 mmHg 48%
    15:00 +39°C° 0 mm 1 m/s 750 mmHg 46%
    16:00 +38°C° 0 mm 2 m/s 750 mmHg 51%
    17:00 +36°C° 0 mm 2 m/s 750 mmHg 56%
    18:00 +35°C° 0 mm 3 m/s 750 mmHg 61%
    19:00 +34°C° 0 mm 3 m/s 751 mmHg 66%
    20:00 +33°C° 0 mm 3 m/s 752 mmHg 71%
    21:00 +33°C° 0 mm 3 m/s 752 mmHg 77%
    22:00 +31°C° 0 mm 3 m/s 752 mmHg 78%
    23:00 +31°C° 0 mm 3 m/s 752 mmHg 79%

    Amanhã, 26 Setembro, Terça-feira

    Tempo Temperatura Precipitação Vento Pressão Humidade
    00:00 +31°C° 0 mm 3 m/s 753 mmHg 80%
    01:00 +31°C° 0,1 mm 3 m/s 752 mmHg 81%
    02:00 +31°C° 0,1 mm 2 m/s 752 mmHg 81%
    03:00 +30°C° 0,1 mm 2 m/s 752 mmHg 82%
    04:00 +30°C° 0,1 mm 2 m/s 752 mmHg 82%
    05:00 +30°C° 0,1 mm 2 m/s 752 mmHg 82%
    06:00 +30°C° 0,1 mm 2 m/s 752 mmHg 83%
    07:00 +31°C° 0,9 mm 1 m/s 753 mmHg 78%
    08:00 +32°C° 0,9 mm 1 m/s 753 mmHg 73%
    09:00 +34°C° 0,9 mm 1 m/s 754 mmHg 68%
    10:00 +35°C° 0 mm 1 m/s 754 mmHg 63%
    11:00 +36°C° 0 mm 1 m/s 753 mmHg 58%
    12:00 +35°C° 0 mm 0 m/s 753 mmHg 54%
    13:00 +37°C° 0,2 mm 1 m/s 752 mmHg 54%
    14:00 +37°C° 0,2 mm 1 m/s 752 mmHg 54%
    15:00 +36°C° 0,2 mm 1 m/s 751 mmHg 55%
    16:00 +36°C° 0 mm 1 m/s 751 mmHg 58%
    17:00 +36°C° 0 mm 2 m/s 751 mmHg 62%
    18:00 +35°C° 0 mm 2 m/s 752 mmHg 66%
    19:00 +34°C° 0,1 mm 3 m/s 752 mmHg 70%
    20:00 +33°C° 0,1 mm 3 m/s 753 mmHg 73%
    21:00 +31°C° 0,1 mm 3 m/s 753 mmHg 77%
    22:00 +31°C° 0,1 mm 3 m/s 753 mmHg 78%
    23:00 +31°C° 0,1 mm 3 m/s 753 mmHg 80%

    Depois de amanhã, 27 Setembro, Quarta-feira

    Tempo Temperatura Precipitação Vento Pressão Humidade
    00:00 +31°C° 0,1 mm 3 m/s 753 mmHg 81%
    01:00 +30°C° 0,3 mm 2 m/s 753 mmHg 82%
    02:00 +30°C° 0,3 mm 2 m/s 752 mmHg 83%
    03:00 +30°C° 0,3 mm 2 m/s 752 mmHg 83%
    04:00 +30°C° 0,3 mm 1 m/s 752 mmHg 83%
    05:00 +30°C° 0,3 mm 1 m/s 753 mmHg 84%
    06:00 +30°C° 0,3 mm 1 m/s 753 mmHg 84%
    07:00 +31°C° 0,4 mm 1 m/s 753 mmHg 80%
    08:00 +32°C° 0,4 mm 1 m/s 754 mmHg 76%
    09:00 +30°C° 0,4 mm 0 m/s 755 mmHg 73%
    10:00 +31°C° 0 mm 0 m/s 754 mmHg 69%
    11:00 +32°C° 0 mm 0 m/s 754 mmHg 65%
    12:00 +35°C° 0 mm 1 m/s 753 mmHg 61%
    13:00 +35°C° 0,1 mm 1 m/s 753 mmHg 61%
    14:00 +35°C° 0,1 mm 1 m/s 752 mmHg 61%
    15:00 +36°C° 0,1 mm 2 m/s 751 mmHg 61%
    16:00 +35°C° 0 mm 2 m/s 751 mmHg 65%
    17:00 +34°C° 0 mm 2 m/s 752 mmHg 69%
    18:00 +34°C° 0 mm 2 m/s 752 mmHg 73%
    19:00 +32°C° 1,1 mm 2 m/s 752 mmHg 76%
    20:00 +31°C° 1,1 mm 2 m/s 753 mmHg 79%
    21:00 +31°C° 1,1 mm 2 m/s 754 mmHg 82%
    22:00 +30°C° 0,6 mm 2 m/s 753 mmHg 84%
    23:00 +30°C° 0,6 mm 2 m/s 753 mmHg 85%

    28 Setembro, Quinta-feira

    Tempo Temperatura Precipitação Vento Pressão Humidade
    00:00 +30°C° 0,6 mm 2 m/s 753 mmHg 87%
    01:00 +30°C° 0,3 mm 2 m/s 752 mmHg 87%
    02:00 +30°C° 0,3 mm 1 m/s 752 mmHg 88%
    03:00 +30°C° 0,3 mm 1 m/s 752 mmHg 88%
    04:00 +30°C° 1,5 mm 1 m/s 752 mmHg 87%
    05:00 +30°C° 1,5 mm 1 m/s 752 mmHg 87%
    06:00 +30°C° 1,5 mm 1 m/s 752 mmHg 86%
    07:00 +30°C° 1 mm 1 m/s 753 mmHg 81%
    08:00 +31°C° 1 mm 1 m/s 754 mmHg 76%
    09:00 +32°C° 1 mm 1 m/s 754 mmHg 72%
    10:00 +33°C° 0 mm 1 m/s 754 mmHg 67%
    11:00 +34°C° 0 mm 1 m/s 753 mmHg 62%
    12:00 +35°C° 0 mm 1 m/s 753 mmHg 56%
    13:00 +35°C° 0,6 mm 1 m/s 752 mmHg 57%
    14:00 +35°C° 0,6 mm 1 m/s 751 mmHg 58%
    15:00 +35°C° 0,6 mm 1 m/s 751 mmHg 58%
    16:00 +34°C° 2,3 mm 1 m/s 751 mmHg 65%
    17:00 +32°C° 2,3 mm 2 m/s 751 mmHg 72%
    18:00 +31°C° 2,3 mm 2 m/s 752 mmHg 79%
    19:00 +31°C° 0,8 mm 2 m/s 752 mmHg 81%
    20:00 +30°C° 0,8 mm 2 m/s 753 mmHg 82%
    21:00 +30°C° 0,8 mm 2 m/s 754 mmHg 84%
    22:00 +30°C° 0,2 mm 2 m/s 753 mmHg 85%
    23:00 +29°C° 0,2 mm 2 m/s 753 mmHg 86%

    29 Setembro, Sexta-feira

    Tempo Temperatura Precipitação Vento Pressão Humidade
    00:00 +29°C° 0,2 mm 2 m/s 753 mmHg 87%
    01:00 +29°C° 0,6 mm 2 m/s 753 mmHg 88%
    02:00 +29°C° 0,6 mm 2 m/s 752 mmHg 88%
    03:00 +29°C° 0,6 mm 1 m/s 752 mmHg 89%
    04:00 +29°C° 1,5 mm 1 m/s 752 mmHg 88%
    05:00 +29°C° 1,5 mm 1 m/s 753 mmHg 87%
    06:00 +27°C° 1,5 mm 0 m/s 753 mmHg 86%
    07:00 +29°C° 0,6 mm 1 m/s 753 mmHg 83%
    08:00 +30°C° 0,6 mm 1 m/s 754 mmHg 79%
    09:00 +31°C° 0,6 mm 1 m/s 754 mmHg 75%
    10:00 +31°C° 0,1 mm 1 m/s 754 mmHg 73%
    11:00 +32°C° 0,1 mm 2 m/s 753 mmHg 71%
    12:00 +32°C° 0,1 mm 2 m/s 753 mmHg 70%
    13:00 +34°C° 0 mm 2 m/s 752 mmHg 68%
    14:00 +34°C° 0 mm 2 m/s 752 mmHg 67%
    15:00 +34°C° 0 mm 2 m/s 751 mmHg 65%
    16:00 +32°C° 0 mm 2 m/s 751 mmHg 69%
    17:00 +31°C° 0 mm 2 m/s 752 mmHg 72%
    18:00 +31°C° 0 mm 2 m/s 752 mmHg 76%
    19:00 +30°C° 0 mm 2 m/s 753 mmHg 78%
    20:00 +30°C° 0 mm 2 m/s 753 mmHg 80%
    21:00 +29°C° 0 mm 3 m/s 754 mmHg 82%
    22:00 +29°C° 0,1 mm 2 m/s 754 mmHg 82%
    23:00 +29°C° 0,1 mm 2 m/s 753 mmHg 83%

    30 Setembro, Sábado

    Tempo Temperatura Precipitação Vento Pressão Humidade
    00:00 +29°C° 0,1 mm 2 m/s 753 mmHg 84%
    01:00 +29°C° 0,7 mm 2 m/s 753 mmHg 84%
    02:00 +29°C° 0,7 mm 2 m/s 753 mmHg 85%
    03:00 +28°C° 0,7 mm 2 m/s 753 mmHg 86%
    04:00 +28°C° 1,7 mm 1 m/s 753 mmHg 86%
    05:00 +28°C° 1,7 mm 1 m/s 753 mmHg 86%
    06:00 +28°C° 1,7 mm 1 m/s 754 mmHg 86%
    07:00 +29°C° 0,8 mm 1 m/s 754 mmHg 81%
    08:00 +30°C° 0,8 mm 1 m/s 755 mmHg 77%
    09:00 +31°C° 0,8 mm 1 m/s 755 mmHg 73%
    10:00 +32°C° 0,2 mm 2 m/s 755 mmHg 70%
    11:00 +34°C° 0,2 mm 2 m/s 754 mmHg 66%
    12:00 +35°C° 0,2 mm 3 m/s 754 mmHg 63%
    13:00 +35°C° 0,3 mm 3 m/s 753 mmHg 64%
    14:00 +35°C° 0,3 mm 4 m/s 753 mmHg 65%
    15:00 +35°C° 0,3 mm 4 m/s 752 mmHg 66%
    16:00 +34°C° 0,1 mm 4 m/s 752 mmHg 71%
    17:00 +33°C° 0,1 mm 4 m/s 753 mmHg 75%
    18:00 +31°C° 0,1 mm 3 m/s 753 mmHg 80%
    19:00 +30°C° 0,3 mm 3 m/s 754 mmHg 81%
    20:00 +30°C° 0,3 mm 3 m/s 754 mmHg 82%
    21:00 +29°C° 0,3 mm 3 m/s 755 mmHg 83%
    22:00 +29°C° 0,6 mm 3 m/s 755 mmHg 84%
    23:00 +29°C° 0,6 mm 3 m/s 754 mmHg 84%
    Mostrar mais